| time (UTC) | temp C | wind direction | speed KPH | gust KPH | rain 1hr cm | rain 24hr cm | rain mn cm | humidity % | barometer mb |
| 20260506155638 | 17 | 326 | 14.5 | 19.3 | 0.00 | 0.00 | 0.03 | 42 | 1009.4 |
| 20260506154627 | 17 | 337 | 3.2 | 6.4 | 0.00 | 0.00 | 0.03 | 42 | 1009.3 |
| 20260506154222 | 17 | 315 | 4.8 | 6.4 | 0.00 | 0.00 | 0.03 | 41 | 1009.4 |
| 20260506154019 | 17 | 258 | 4.8 | 6.4 | 0.00 | 0.00 | 0.03 | 41 | 1009.2 |
| 20260506153615 | 18 | 337 | 3.2 | 12.9 | 0.00 | 0.00 | 0.03 | 41 | 1009.3 |
| 20260506153210 | 18 | 315 | 4.8 | 8.0 | 0.00 | 0.00 | 0.03 | 39 | 1009.3 |
| 20260506153011 | 18 | 303 | 6.4 | 8.0 | 0.00 | 0.00 | 0.03 | 39 | 1009.3 |
| 20260506152805 | 18 | 0 | 4.8 | 6.4 | 0.00 | 0.00 | 0.03 | 39 | 1009.2 |
| 20260506152603 | 18 | 0 | 4.8 | 6.4 | 0.00 | 0.00 | 0.03 | 39 | 1009.2 |
| 20260506152202 | 18 | 0 | 4.8 | 6.4 | 0.00 | 0.00 | 0.03 | 38 | 1009.1 |
| 20260506151832 | 18 | 326 | 3.2 | 8.0 | 0.00 | 0.00 | 0.03 | 38 | 1009.2 |
| 20260506151754 | 18 | 326 | 3.2 | 8.0 | 0.00 | 0.00 | 0.03 | 38 | 1009.2 |
| 20260506150544 | 20 | 315 | 3.2 | 11.3 | 0.00 | 0.00 | 0.03 | 35 | 1009.1 |
| 20260506150338 | 20 | 315 | 9.7 | 11.3 | 0.00 | 0.00 | 0.03 | 35 | 1009.1 |
| 20260506145735 | 20 | 315 | 6.4 | 8.0 | 0.00 | 0.00 | 0.03 | 33 | 1009.0 |
| 20260506145330 | 21 | 292 | 4.8 | 4.8 | 0.00 | 0.00 | 0.03 | 32 | 1009.1 |
| 20260506145130 | 21 | 315 | 4.8 | 4.8 | 0.00 | 0.00 | 0.03 | 32 | 1009.1 |
| 20260506144923 | 21 | 315 | 0.0 | 6.4 | 0.00 | 0.00 | 0.03 | 31 | 1009.1 |
| 20260506144801 | 21 | 315 | 3.2 | 6.4 | 0.00 | 0.00 | 0.03 | 29 | 1009.2 |
| 20260506144720 | 21 | 315 | 3.2 | 6.4 | 0.00 | 0.00 | 0.03 | 29 | 1009.2 |
| 20260506144518 | 21 | 270 | 1.6 | 4.8 | 0.00 | 0.00 | 0.00 | 28 | 1009.1 |
| 20260506143911 | 21 | 270 | 4.8 | 12.9 | 0.00 | 0.00 | 0.00 | 27 | 1009.1 |
| 20260506143709 | 22 | 270 | 12.9 | 12.9 | 0.00 | 0.00 | 0.00 | 27 | 1009.0 |
| 20260506143304 | 22 | 270 | 1.6 | 6.4 | 0.00 | 0.00 | 0.00 | 26 | 1009.1 |
| 20260506143108 | 22 | 270 | 4.8 | 6.4 | 0.00 | 0.00 | 0.00 | 26 | 1009.0 |
| 20260506142903 | 22 | 270 | 1.6 | 4.8 | 0.00 | 0.00 | 0.00 | 26 | 1009.0 |
| 20260506142657 | 22 | 270 | 3.2 | 9.7 | 0.00 | 0.00 | 0.00 | 25 | 1009.0 |
| 20260506142254 | 22 | 270 | 3.2 | 6.4 | 0.00 | 0.00 | 0.00 | 24 | 1009.0 |
| 20260506141450 | 23 | 270 | 4.8 | 9.7 | 0.00 | 0.00 | 0.00 | 22 | 1009.1 |
| 20260506141241 | 23 | 270 | 8.0 | 9.7 | 0.00 | 0.00 | 0.00 | 22 | 1009.1 |
| 20260506140837 | 23 | 270 | 3.2 | 12.9 | 0.00 | 0.00 | 0.00 | 22 | 1009.1 |
| 20260506140634 | 23 | 270 | 6.4 | 16.1 | 0.00 | 0.00 | 0.00 | 21 | 1009.0 |
| 20260506140230 | 23 | 270 | 11.3 | 14.5 | 0.00 | 0.00 | 0.00 | 20 | 1009.1 |
| 20260506140029 | 24 | 270 | 4.8 | 14.5 | 0.00 | 0.00 | 0.00 | 20 | 1009.1 |
| 20260506135421 | 24 | 270 | 9.7 | 16.1 | 0.00 | 0.00 | 0.00 | 20 | 1009.0 |
| 20260506135017 | 25 | 270 | 11.3 | 20.9 | 0.00 | 0.00 | 0.00 | 20 | 1009.0 |
| 20260506134815 | 25 | 270 | 14.5 | 20.9 | 0.00 | 0.00 | 0.00 | 20 | 1009.0 |
| 20260506134612 | 25 | 270 | 19.3 | 20.9 | 0.00 | 0.00 | 0.00 | 20 | 1009.1 |
| 20260506133844 | 25 | 270 | 11.3 | 19.3 | 0.00 | 0.00 | 0.00 | 20 | 1009.1 |
| 20260506133640 | 25 | 270 | 14.5 | 25.7 | 0.00 | 0.00 | 0.00 | 19 | 1009.1 |
| 20260506133442 | 25 | 270 | 22.5 | 25.7 | 0.00 | 0.00 | 0.00 | 20 | 1008.9 |
| 20260506133236 | 26 | 270 | 16.1 | 19.3 | 0.00 | 0.00 | 0.00 | 20 | 1009.1 |
| 20260506132832 | 25 | 270 | 6.4 | 16.1 | 0.00 | 0.00 | 0.00 | 21 | 1009.1 |
| 20260506132632 | 25 | 270 | 9.7 | 14.5 | 0.00 | 0.00 | 0.00 | 22 | 1009.0 |
| 20260506132225 | 25 | 270 | 12.9 | 16.1 | 0.00 | 0.00 | 0.00 | 22 | 1009.0 |
| 20260506132023 | 25 | 270 | 3.2 | 16.1 | 0.00 | 0.00 | 0.00 | 22 | 1008.9 |
| 20260506131822 | 25 | 292 | 6.4 | 11.3 | 0.00 | 0.00 | 0.00 | 22 | 1009.0 |
| 20260506131619 | 24 | 292 | 11.3 | 16.1 | 0.00 | 0.00 | 0.00 | 24 | 1008.9 |
| 20260506131416 | 24 | 270 | 9.7 | 16.1 | 0.00 | 0.00 | 0.00 | 24 | 1009.0 |
| 20260506131217 | 24 | 315 | 4.8 | 12.9 | 0.00 | 0.00 | 0.00 | 23 | 1009.0 |
| 20260506131012 | 23 | 270 | 8.0 | 12.9 | 0.00 | 0.00 | 0.00 | 23 | 1009.0 |
| 20260506130809 | 23 | 270 | 6.4 | 9.7 | 0.00 | 0.00 | 0.00 | 24 | 1009.1 |
| 20260506130606 | 23 | 270 | 6.4 | 11.3 | 0.00 | 0.00 | 0.00 | 25 | 1009.0 |
| 20260506130404 | 23 | 292 | 8.0 | 11.3 | 0.00 | 0.00 | 0.00 | 23 | 1009.0 |
| 20260506125758 | 23 | 270 | 4.8 | 11.3 | 0.00 | 0.00 | 0.00 | 24 | 1009.0 |
| 20260506125427 | 22 | 270 | 4.8 | 16.1 | 0.00 | 0.00 | 0.00 | 23 | 1009.2 |
| 20260506125355 | 22 | 270 | 4.8 | 16.1 | 0.00 | 0.00 | 0.00 | 23 | 1009.2 |
| 20260506124953 | 22 | 270 | 12.9 | 12.9 | 0.00 | 0.00 | 0.00 | 23 | 1009.1 |
| 20260506124749 | 22 | 270 | 9.7 | 14.5 | 0.00 | 0.00 | 0.00 | 22 | 1009.2 |
| 20260506124544 | 22 | 270 | 6.4 | 14.5 | 0.00 | 0.00 | 0.00 | 22 | 1009.2 |
| 20260506124343 | 22 | 270 | 12.9 | 22.5 | 0.00 | 0.00 | 0.00 | 22 | 1009.2 |
| 20260506124141 | 23 | 270 | 12.9 | 22.5 | 0.00 | 0.00 | 0.00 | 22 | 1009.1 |
| 20260506123941 | 23 | 270 | 22.5 | 22.5 | 0.00 | 0.00 | 0.00 | 23 | 1009.1 |
| 20260506123838 | 23 | 270 | 9.7 | 11.3 | 0.00 | 0.00 | 0.00 | 24 | 1009.2 |
| 20260506123231 | 22 | 270 | 9.7 | 14.5 | 0.00 | 0.00 | 0.00 | 23 | 1009.2 |
| 20260506122622 | 22 | 270 | 8.0 | 20.9 | 0.00 | 0.00 | 0.00 | 23 | 1009.3 |
| 20260506121653 | 22 | 270 | 11.3 | 12.9 | 0.00 | 0.00 | 0.00 | 23 | 1009.2 |
| 20260506121451 | 22 | 270 | 8.0 | 12.9 | 0.00 | 0.00 | 0.00 | 24 | 1009.3 |
| 20260506120642 | 23 | 270 | 6.4 | 17.7 | 0.00 | 0.00 | 0.00 | 22 | 1009.3 |
| 20260506120234 | 23 | 270 | 8.0 | 16.1 | 0.00 | 0.00 | 0.00 | 21 | 1009.2 |
| 20260506115832 | 23 | 270 | 16.1 | 17.7 | 0.00 | 0.00 | 0.00 | 22 | 1009.1 |
| 20260506115224 | 24 | 270 | 12.9 | 20.9 | 0.00 | 0.00 | 0.00 | 22 | 1009.1 |
| 20260506114859 | 24 | 292 | 3.2 | 11.3 | 0.00 | 0.00 | 0.00 | 22 | 1009.2 |
| 20260506114659 | 24 | 270 | 9.7 | 11.3 | 0.00 | 0.00 | 0.00 | 21 | 1009.3 |
| 20260506114455 | 25 | 270 | 6.4 | 12.9 | 0.00 | 0.00 | 0.00 | 22 | 1009.4 |
| 20260506113852 | 25 | 270 | 3.2 | 11.3 | 0.00 | 0.00 | 0.00 | 23 | 1009.3 |
| 20260506112635 | 24 | 270 | 9.7 | 9.7 | 0.00 | 0.00 | 0.00 | 25 | 1009.4 |
| 20260506111218 | 23 | 270 | 4.8 | 9.7 | 0.00 | 0.00 | 0.00 | 26 | 1009.6 |
| 20260506110610 | 23 | 270 | 3.2 | 20.9 | 0.00 | 0.00 | 0.00 | 25 | 1009.7 |
| 20260506110236 | 23 | 270 | 14.5 | 14.5 | 0.00 | 0.00 | 0.00 | 26 | 1009.6 |
| 20260506104011 | 22 | 270 | 16.1 | 16.1 | 0.00 | 0.00 | 0.00 | 27 | 1009.8 |
| 20260506103810 | 22 | 270 | 11.3 | 12.9 | 0.00 | 0.00 | 0.00 | 27 | 1009.8 |
| 20260506103404 | 22 | 270 | 4.8 | 8.0 | 0.00 | 0.00 | 0.00 | 27 | 1009.8 |
| 20260506102959 | 23 | 270 | 3.2 | 11.3 | 0.00 | 0.00 | 0.00 | 27 | 1009.9 |
| 20260506101543 | 23 | 270 | 4.8 | 14.5 | 0.00 | 0.00 | 0.00 | 26 | 1009.9 |
| 20260506100325 | 23 | 270 | 6.4 | 8.0 | 0.00 | 0.00 | 0.00 | 28 | 1009.8 |
| 20260506100123 | 23 | 270 | 4.8 | 8.0 | 0.00 | 0.00 | 0.00 | 28 | 1009.9 |
| 20260506095721 | 23 | 270 | 4.8 | 11.3 | 0.00 | 0.00 | 0.00 | 31 | 1009.9 |
| 20260506094303 | 22 | 270 | 6.4 | 11.3 | 0.00 | 0.00 | 0.00 | 31 | 1009.9 |
| 20260506092439 | 21 | 315 | 8.0 | 11.3 | 0.00 | 0.00 | 0.00 | 33 | 1009.9 |
| 20260506091504 | 21 | 270 | 8.0 | 12.9 | 0.00 | 0.00 | 0.00 | 33 | 1009.9 |
| 20260506091430 | 21 | 270 | 8.0 | 12.9 | 0.00 | 0.00 | 0.00 | 33 | 1009.9 |
| 20260506090619 | 21 | 270 | 3.2 | 19.3 | 0.00 | 0.00 | 0.00 | 33 | 1009.9 |
| 20260506090012 | 21 | 270 | 8.0 | 20.9 | 0.00 | 0.00 | 0.00 | 33 | 1009.8 |
| 20260506085810 | 21 | 270 | 14.5 | 20.9 | 0.00 | 0.00 | 0.00 | 33 | 1009.7 |
| 20260506085405 | 21 | 270 | 14.5 | 14.5 | 0.00 | 0.00 | 0.00 | 36 | 1009.7 |
| 20260506084354 | 20 | 315 | 14.5 | 14.5 | 0.00 | 0.00 | 0.00 | 35 | 1009.6 |
| 20260506083335 | 19 | 270 | 4.8 | 12.9 | 0.00 | 0.00 | 0.00 | 39 | 1009.7 |
| 20260506083134 | 19 | 270 | 8.0 | 12.9 | 0.00 | 0.00 | 0.00 | 39 | 1009.6 |
| 20260506082317 | 18 | 270 | 4.8 | 12.9 | 0.00 | 0.00 | 0.00 | 40 | 1009.7 |
| 20260506081115 | 18 | 270 | 4.8 | 11.3 | 0.00 | 0.00 | 0.00 | 42 | 1009.6 |
| 20260506080510 | 17 | 270 | 4.8 | 6.4 | 0.00 | 0.00 | 0.00 | 42 | 1009.7 |
| 20260506073350 | 15 | 292 | 204.4 | 204.4 | 0.00 | 0.00 | 0.00 | 48 | 1009.9 |
| 20260506073314 | 15 | 292 | 204.4 | 204.4 | 0.00 | 0.00 | 0.00 | 48 | 1009.9 |
| 20260506072842 | 14 | 270 | 9.7 | 11.3 | 0.00 | 0.00 | 0.00 | 51 | 1009.7 |
| 20260506072640 | 14 | 292 | 6.4 | 6.4 | 0.00 | 0.00 | 0.00 | 52 | 1010.0 |
| 20260506072438 | 13 | 315 | 6.4 | 201.2 | 0.00 | 0.00 | 0.00 | 51 | 1009.9 |
| 20260506072241 | 13 | 292 | 3.2 | 201.2 | 0.00 | 0.00 | 0.00 | 52 | 1009.9 |
| 20260506072133 | 13 | 270 | 201.2 | 201.2 | 0.00 | 0.00 | 0.00 | 51 | 1009.9 |
| 20260506071648 | 13 | 292 | 6.4 | 8.0 | 0.00 | 0.00 | 0.00 | 50 | 1009.9 |
| 20260506071453 | 13 | 292 | 4.8 | 8.0 | 0.00 | 0.00 | 0.00 | 49 | 1009.9 |
| 20260506071246 | 13 | 315 | 6.4 | 8.0 | 0.00 | 0.00 | 0.00 | 50 | 1009.9 |
| 20260506071047 | 13 | 270 | 1.6 | 8.0 | 0.00 | 0.00 | 0.00 | 50 | 1009.9 |
| 20260506070841 | 13 | 315 | 4.8 | 6.4 | 0.00 | 0.00 | 0.00 | 51 | 1009.6 |
| 20260506070636 | 12 | 337 | 1.6 | 3.2 | 0.00 | 0.00 | 0.00 | 51 | 1009.7 |
| 20260506070435 | 12 | 337 | 0.0 | 6.4 | 0.00 | 0.00 | 0.00 | 51 | 1009.8 |
| 20260506062145 | 11 | 225 | 4.8 | 9.7 | 0.00 | 0.00 | 0.00 | 52 | 1009.8 |
| 20260506061741 | 11 | 225 | 0.0 | 8.0 | 0.00 | 0.00 | 0.00 | 53 | 1009.8 |
| 20260506060932 | 11 | 337 | 4.8 | 8.0 | 0.00 | 0.00 | 0.00 | 53 | 1009.7 |
| 20260506060528 | 11 | 315 | 6.4 | 11.3 | 0.00 | 0.00 | 0.00 | 53 | 1009.7 |
| 20260506060328 | 11 | 270 | 3.2 | 11.3 | 0.00 | 0.00 | 0.00 | 53 | 1009.9 |
| 20260506051234 | 11 | 315 | 6.4 | 11.3 | 0.00 | 0.00 | 0.00 | 54 | 1009.4 |
| 20260506051026 | 11 | 326 | 8.0 | 11.3 | 0.00 | 0.00 | 0.00 | 55 | 1009.2 |
| 20260506050625 | 11 | 315 | 1.6 | 6.4 | 0.00 | 0.00 | 0.00 | 55 | 1009.3 |
| 20260506050218 | 11 | 292 | 4.8 | 9.7 | 0.00 | 0.00 | 0.00 | 56 | 1009.5 |
| 20260506044801 | 11 | 292 | 11.3 | 11.3 | 0.00 | 0.00 | 0.00 | 54 | 1009.5 |
| 20260506043747 | 11 | 292 | 4.8 | 9.7 | 0.00 | 0.00 | 0.00 | 55 | 1009.1 |
| 20260506043345 | 11 | 292 | 1.6 | 8.0 | 0.00 | 0.00 | 0.00 | 55 | 1009.4 |
| 20260506042938 | 11 | 292 | 4.8 | 12.9 | 0.00 | 0.00 | 0.00 | 55 | 1009.5 |
| 20260506042206 | 11 | 348 | 1.6 | 9.7 | 0.00 | 0.00 | 0.00 | 55 | 1009.3 |
| 20260506041930 | 11 | 348 | 4.8 | 6.4 | 0.00 | 0.00 | 0.00 | 56 | 1009.3 |
| 20260506041320 | 11 | 281 | 4.8 | 9.7 | 0.00 | 0.00 | 0.00 | 53 | 1009.2 |
| 20260506040713 | 11 | 292 | 1.6 | 8.0 | 0.00 | 0.00 | 0.00 | 55 | 1009.2 |
| 20260506040511 | 11 | 337 | 1.6 | 6.4 | 0.00 | 0.00 | 0.00 | 55 | 1009.0 |
| 20260506040107 | 11 | 281 | 1.6 | 4.8 | 0.00 | 0.00 | 0.00 | 55 | 1008.8 |
| 20260506035459 | 11 | 270 | 3.2 | 8.0 | 0.00 | 0.00 | 0.00 | 55 | 1009.1 |
| 20260506035257 | 11 | 303 | 3.2 | 8.0 | 0.00 | 0.00 | 0.00 | 55 | 1009.2 |
| 20260506034047 | 11 | 315 | 6.4 | 9.7 | 0.00 | 0.00 | 0.00 | 55 | 1009.2 |
| 20260506033748 | 11 | 292 | 4.8 | 9.7 | 0.00 | 0.00 | 0.00 | 56 | 1008.9 |
| 20260506033645 | 11 | 292 | 4.8 | 9.7 | 0.00 | 0.00 | 0.00 | 56 | 1008.9 |
| 20260506032627 | 11 | 292 | 1.6 | 9.7 | 0.00 | 0.00 | 0.00 | 55 | 1009.4 |
| 20260506032022 | 11 | 337 | 1.6 | 9.7 | 0.00 | 0.00 | 0.00 | 55 | 1009.3 |
| 20260506031819 | 11 | 0 | 1.6 | 9.7 | 0.00 | 0.00 | 0.00 | 55 | 1009.3 |
| 20260506031011 | 11 | 326 | 3.2 | 9.7 | 0.00 | 0.00 | 0.00 | 56 | 1009.1 |
| 20260506030205 | 11 | 315 | 4.8 | 8.0 | 0.00 | 0.00 | 0.00 | 56 | 1009.1 |
| 20260506025757 | 11 | 303 | 1.6 | 6.4 | 0.00 | 0.00 | 0.00 | 53 | 1008.7 |
| 20260506025150 | 11 | 270 | 0.0 | 6.4 | 0.00 | 0.00 | 0.00 | 55 | 1009.3 |
| 20260506024139 | 11 | 337 | 1.6 | 9.7 | 0.00 | 0.00 | 0.00 | 55 | 1009.1 |
| 20260506023734 | 11 | 303 | 6.4 | 6.4 | 0.00 | 0.00 | 0.00 | 56 | 1009.0 |
| 20260506023329 | 11 | 303 | 3.2 | 6.4 | 0.00 | 0.00 | 0.00 | 56 | 1009.0 |
| 20260506022115 | 11 | 292 | 1.6 | 6.4 | 0.00 | 0.00 | 0.00 | 56 | 1008.8 |
| 20260506021710 | 11 | 348 | 0.0 | 8.0 | 0.00 | 0.00 | 0.00 | 56 | 1009.2 |
| 20260506021508 | 11 | 315 | 4.8 | 8.0 | 0.00 | 0.00 | 0.00 | 56 | 1009.5 |
| 20260506020905 | 11 | 337 | 3.2 | 4.8 | 0.00 | 0.00 | 0.00 | 57 | 1008.7 |
| 20260506020457 | 11 | 348 | 0.0 | 3.2 | 0.00 | 0.00 | 0.00 | 57 | 1009.1 |
| 20260506020255 | 11 | 337 | 1.6 | 1.6 | 0.00 | 0.00 | 0.00 | 57 | 1009.2 |
| 20260506014511 | 11 | 225 | 1.6 | 6.4 | 0.00 | 0.00 | 0.00 | 56 | 1009.2 |
| 20260506014434 | 11 | 225 | 1.6 | 6.4 | 0.00 | 0.00 | 0.00 | 56 | 1009.2 |
| 20260506013831 | 11 | 270 | 4.8 | 4.8 | 0.00 | 0.00 | 0.00 | 56 | 1009.1 |
| 20260506013716 | 11 | 292 | 4.8 | 4.8 | 0.00 | 0.00 | 0.00 | 56 | 1009.3 |
| 20260506013625 | 11 | 292 | 4.8 | 4.8 | 0.00 | 0.00 | 0.00 | 56 | 1009.3 |
| 20260506013519 | 11 | 292 | 1.6 | 3.2 | 0.00 | 0.00 | 0.00 | 57 | 1009.1 |
| 20260506013423 | 11 | 292 | 1.6 | 3.2 | 0.00 | 0.00 | 0.00 | 57 | 1009.1 |
| 20260506012613 | 11 | 326 | 0.0 | 3.2 | 0.00 | 0.00 | 0.00 | 57 | 1008.6 |
| 20260506011603 | 11 | 337 | 1.6 | 4.8 | 0.00 | 0.00 | 0.00 | 56 | 1009.2 |
| 20260506011001 | 11 | 337 | 3.2 | 4.8 | 0.00 | 0.00 | 0.00 | 57 | 1009.2 |
| 20260506010754 | 11 | 292 | 1.6 | 3.2 | 0.00 | 0.00 | 0.00 | 56 | 1009.5 |
| 20260506010551 | 11 | 337 | 1.6 | 4.8 | 0.00 | 0.00 | 0.00 | 56 | 1009.4 |
| 20260506005944 | 11 | 292 | 0.0 | 6.4 | 0.00 | 0.00 | 0.00 | 56 | 1009.4 |
| 20260506005337 | 11 | 326 | 3.2 | 4.8 | 0.00 | 0.00 | 0.00 | 56 | 1009.2 |
| 20260506005139 | 11 | 281 | 1.6 | 4.8 | 0.00 | 0.00 | 0.00 | 56 | 1009.6 |
| 20260506004933 | 11 | 348 | 4.8 | 8.0 | 0.00 | 0.00 | 0.00 | 56 | 1009.3 |
| 20260506004326 | 11 | 337 | 4.8 | 4.8 | 0.00 | 0.00 | 0.00 | 56 | 1009.3 |
| 20260506003922 | 11 | 337 | 4.8 | 4.8 | 0.00 | 0.00 | 0.00 | 54 | 1009.6 |
| 20260506003113 | 11 | 337 | 1.6 | 8.0 | 0.00 | 0.00 | 0.00 | 56 | 1009.4 |
| 20260506002708 | 11 | 292 | 8.0 | 9.7 | 0.00 | 0.00 | 0.00 | 54 | 1009.7 |
| 20260506002505 | 11 | 281 | 6.4 | 9.7 | 0.00 | 0.00 | 0.00 | 56 | 1009.7 |
| 20260506002120 | 11 | 315 | 4.8 | 8.0 | 0.00 | 0.00 | 0.00 | 52 | 1009.9 |
| 20260506001454 | 11 | 348 | 1.6 | 9.7 | 0.00 | 0.00 | 0.00 | 56 | 1009.5 |
| 20260506001259 | 11 | 292 | 4.8 | 9.7 | 0.00 | 0.00 | 0.00 | 55 | 1009.8 |
| 20260506001052 | 11 | 315 | 8.0 | 9.7 | 0.00 | 0.00 | 0.00 | 57 | 1009.6 |
| 20260506000646 | 11 | 337 | 6.4 | 6.4 | 0.00 | 0.00 | 0.00 | 57 | 1009.7 |
| 20260506000445 | 11 | 281 | 6.4 | 8.0 | 0.00 | 0.00 | 0.00 | 57 | 1009.7 |
| 20260506000318 | 11 | 337 | 4.8 | 8.0 | 0.00 | 0.00 | 0.00 | 55 | 1009.9 |
| 20260506000241 | 11 | 337 | 4.8 | 8.0 | 0.00 | 0.00 | 0.00 | 55 | 1009.9 |
| 20260505235836 | 11 | 315 | 6.4 | 6.4 | 0.00 | 0.00 | 0.00 | 56 | 1010.0 |
| 20260505235634 | 11 | 225 | 1.6 | 8.0 | 0.00 | 0.00 | 0.00 | 54 | 1009.8 |
| 20260505235431 | 11 | 337 | 3.2 | 8.0 | 0.00 | 0.00 | 0.00 | 56 | 1010.1 |
| 20260505235028 | 11 | 348 | 4.8 | 9.7 | 0.00 | 0.00 | 0.00 | 54 | 1010.0 |
| 20260505234825 | 11 | 337 | 6.4 | 9.7 | 0.00 | 0.00 | 0.00 | 56 | 1009.8 |
| 20260505234420 | 11 | 315 | 8.0 | 9.7 | 0.00 | 0.00 | 0.00 | 56 | 1009.9 |
| 20260505234017 | 11 | 292 | 3.2 | 9.7 | 0.00 | 0.00 | 0.00 | 56 | 1010.2 |
| 20260505233814 | 11 | 315 | 4.8 | 9.7 | 0.00 | 0.00 | 0.00 | 57 | 1009.6 |
| 20260505233611 | 11 | 292 | 9.7 | 9.7 | 0.00 | 0.00 | 0.00 | 57 | 1010.1 |
| 20260505233207 | 11 | 315 | 3.2 | 8.0 | 0.00 | 0.00 | 0.00 | 57 | 1009.9 |
| 20260505232802 | 11 | 292 | 4.8 | 8.0 | 0.00 | 0.00 | 0.00 | 57 | 1010.3 |
| 20260505232628 | 11 | 292 | 6.4 | 11.3 | 0.00 | 0.00 | 0.00 | 56 | 1010.1 |
| 20260505232358 | 11 | 292 | 6.4 | 11.3 | 0.00 | 0.00 | 0.00 | 53 | 1010.1 |
| 20260505232155 | 11 | 292 | 11.3 | 12.9 | 0.00 | 0.00 | 0.00 | 56 | 1009.9 |
| 20260505231955 | 11 | 292 | 6.4 | 12.9 | 0.00 | 0.00 | 0.00 | 56 | 1010.0 |
| 20260505231839 | 12 | 292 | 6.4 | 9.7 | 0.00 | 0.00 | 0.00 | 56 | 1010.2 |
| 20260505231755 | 12 | 292 | 6.4 | 9.7 | 0.00 | 0.00 | 0.00 | 56 | 1010.2 |
| 20260505231533 | 12 | 292 | 4.8 | 11.3 | 0.00 | 0.00 | 0.00 | 57 | 1010.3 |
| 20260505230931 | 12 | 292 | 8.0 | 11.3 | 0.00 | 0.00 | 0.00 | 56 | 1009.6 |
| 20260505230725 | 12 | 326 | 4.8 | 9.7 | 0.00 | 0.00 | 0.00 | 57 | 1010.3 |
| 20260505230524 | 12 | 292 | 6.4 | 9.7 | 0.00 | 0.00 | 0.00 | 57 | 1010.2 |
| 20260505230320 | 12 | 281 | 4.8 | 9.7 | 0.00 | 0.00 | 0.00 | 56 | 1009.8 |
| 20260505230118 | 12 | 337 | 8.0 | 8.0 | 0.00 | 0.00 | 0.00 | 58 | 1010.2 |
| 20260505225915 | 12 | 315 | 4.8 | 9.7 | 0.00 | 0.00 | 0.00 | 56 | 1010.1 |
| 20260505225714 | 12 | 315 | 6.4 | 9.7 | 0.00 | 0.00 | 0.00 | 55 | 1010.2 |
| 20260505225308 | 12 | 292 | 1.6 | 8.0 | 0.00 | 0.00 | 0.00 | 57 | 1009.9 |
| 20260505224701 | 12 | 315 | 1.6 | 4.8 | 0.00 | 0.00 | 0.00 | 53 | 1010.2 |
| 20260505224503 | 12 | 0 | 1.6 | 8.0 | 0.00 | 0.00 | 0.00 | 57 | 1010.5 |
| 20260505224257 | 12 | 281 | 1.6 | 8.0 | 0.00 | 0.00 | 0.00 | 58 | 1010.2 |
| 20260505223738 | 12 | 337 | 1.6 | 4.8 | 0.00 | 0.00 | 0.00 | 57 | 1010.0 |
| 20260505223654 | 12 | 337 | 1.6 | 4.8 | 0.00 | 0.00 | 0.00 | 57 | 1010.0 |
| 20260505223451 | 12 | 315 | 3.2 | 6.4 | 0.00 | 0.00 | 0.00 | 58 | 1010.1 |
| 20260505223046 | 12 | 337 | 3.2 | 4.8 | 0.00 | 0.00 | 0.00 | 57 | 1010.3 |
| 20260505221631 | 12 | 270 | 3.2 | 6.4 | 0.00 | 0.00 | 0.00 | 57 | 1010.3 |
| 20260505221426 | 12 | 270 | 1.6 | 6.4 | 0.00 | 0.00 | 0.00 | 56 | 1010.3 |
| 20260505221023 | 12 | 281 | 1.6 | 4.8 | 0.00 | 0.00 | 0.00 | 56 | 1010.2 |
| 20260505220820 | 12 | 337 | 0.0 | 6.4 | 0.00 | 0.00 | 0.00 | 56 | 1010.3 |
| 20260505220618 | 12 | 292 | 3.2 | 6.4 | 0.00 | 0.00 | 0.00 | 59 | 1010.3 |
| 20260505220414 | 12 | 292 | 3.2 | 4.8 | 0.00 | 0.00 | 0.00 | 56 | 1010.0 |
| 20260505220215 | 12 | 337 | 0.0 | 3.2 | 0.00 | 0.00 | 0.00 | 58 | 1010.5 |
| 20260505220011 | 12 | 0 | 0.0 | 3.2 | 0.00 | 0.00 | 0.00 | 57 | 1010.5 |
| 20260505215857 | 12 | 292 | 1.6 | 3.2 | 0.00 | 0.00 | 0.00 | 57 | 1010.4 |
| 20260505215813 | 12 | 292 | 1.6 | 3.2 | 0.00 | 0.00 | 0.00 | 57 | 1010.4 |
| 20260505215403 | 12 | 225 | 0.0 | 3.2 | 0.00 | 0.00 | 0.00 | 57 | 1010.3 |
| 20260505215001 | 11 | 292 | 1.6 | 4.8 | 0.00 | 0.00 | 0.00 | 54 | 1010.0 |
| 20260505214800 | 11 | 303 | 1.6 | 1.6 | 0.00 | 0.00 | 0.00 | 57 | 1010.4 |
| 20260505214552 | 11 | 225 | 0.0 | 3.2 | 0.00 | 0.00 | 0.00 | 57 | 1010.7 |
| 20260505214148 | 11 | 225 | 1.6 | 4.8 | 0.00 | 0.00 | 0.00 | 56 | 1010.4 |
| 20260505213946 | 11 | 303 | 1.6 | 4.8 | 0.00 | 0.00 | 0.00 | 57 | 1010.1 |
| 20260505213012 | 12 | 270 | 6.4 | 8.0 | 0.00 | 0.00 | 0.00 | 56 | 1010.9 |
| 20260505212935 | 12 | 270 | 6.4 | 8.0 | 0.00 | 0.00 | 0.00 | 56 | 1010.9 |
| 20260505212732 | 11 | 270 | 6.4 | 8.0 | 0.00 | 0.00 | 0.00 | 57 | 1010.1 |
| 20260505212328 | 11 | 270 | 6.4 | 8.0 | 0.00 | 0.00 | 0.00 | 59 | 1010.6 |
| 20260505212126 | 11 | 292 | 4.8 | 4.8 | 0.00 | 0.00 | 0.00 | 57 | 1010.7 |
| 20260505211926 | 11 | 337 | 0.0 | 3.2 | 0.00 | 0.00 | 0.00 | 58 | 1010.3 |
| 20260505211723 | 11 | 315 | 0.0 | 3.2 | 0.00 | 0.00 | 0.00 | 58 | 1010.7 |
| 20260505211519 | 11 | 292 | 3.2 | 3.2 | 0.00 | 0.00 | 0.00 | 58 | 1010.4 |
| 20260505211318 | 11 | 225 | 0.0 | 4.8 | 0.00 | 0.00 | 0.00 | 58 | 1010.6 |
| 20260505211115 | 11 | 0 | 0.0 | 4.8 | 0.00 | 0.00 | 0.00 | 57 | 1010.1 |
| 20260505210912 | 11 | 225 | 0.0 | 4.8 | 0.00 | 0.00 | 0.00 | 56 | 1010.5 |
| 20260505210511 | 11 | 225 | 4.8 | 4.8 | 0.00 | 0.00 | 0.00 | 57 | 1010.5 |
| 20260505210305 | 11 | 225 | 3.2 | 4.8 | 0.00 | 0.00 | 0.00 | 57 | 1010.6 |
| 20260505205901 | 11 | 225 | 1.6 | 4.8 | 0.00 | 0.00 | 0.00 | 57 | 1010.4 |
| 20260505205658 | 11 | 225 | 3.2 | 6.4 | 0.00 | 0.00 | 0.00 | 57 | 1010.1 |
| 20260505205456 | 11 | 225 | 0.0 | 8.0 | 0.00 | 0.00 | 0.00 | 57 | 1010.5 |
| 20260505205051 | 12 | 292 | 1.6 | 6.4 | 0.00 | 0.00 | 0.00 | 57 | 1010.5 |
| 20260505204853 | 12 | 292 | 3.2 | 6.4 | 0.00 | 0.00 | 0.00 | 57 | 1010.5 |
| 20260505204647 | 12 | 292 | 3.2 | 6.4 | 0.00 | 0.00 | 0.00 | 57 | 1010.3 |
| 20260505204243 | 12 | 270 | 0.0 | 3.2 | 0.00 | 0.00 | 0.00 | 58 | 1010.1 |
| 20260505203838 | 11 | 303 | 0.0 | 4.8 | 0.00 | 0.00 | 0.00 | 58 | 1010.5 |
| 20260505203433 | 11 | 315 | 1.6 | 4.8 | 0.00 | 0.00 | 0.00 | 57 | 1010.3 |
| 20260505203029 | 11 | 225 | 4.8 | 4.8 | 0.00 | 0.00 | 0.00 | 58 | 1010.4 |
| 20260505202625 | 11 | 315 | 1.6 | 4.8 | 0.00 | 0.00 | 0.00 | 58 | 1010.0 |
| 20260505202422 | 11 | 292 | 3.2 | 8.0 | 0.00 | 0.00 | 0.00 | 53 | 1010.3 |
| 20260505202219 | 11 | 292 | 4.8 | 8.0 | 0.00 | 0.00 | 0.00 | 56 | 1010.3 |
| 20260505201815 | 11 | 225 | 0.0 | 3.2 | 0.00 | 0.00 | 0.00 | 56 | 1010.2 |
| 20260505201614 | 11 | 292 | 1.6 | 1.6 | 0.00 | 0.00 | 0.00 | 57 | 1010.2 |
| 20260505201410 | 11 | 225 | 0.0 | 3.2 | 0.00 | 0.00 | 0.00 | 57 | 1010.3 |
| 20260505201209 | 11 | 225 | 1.6 | 3.2 | 0.00 | 0.00 | 0.00 | 58 | 1010.2 |
| 20260505201006 | 11 | 337 | 1.6 | 3.2 | 0.00 | 0.00 | 0.00 | 57 | 1010.2 |
| 20260505200804 | 11 | 337 | 1.6 | 3.2 | 0.00 | 0.00 | 0.00 | 57 | 1010.3 |
| 20260505200602 | 11 | 225 | 3.2 | 6.4 | 0.00 | 0.00 | 0.00 | 58 | 1010.2 |
| 20260505195955 | 11 | 337 | 6.4 | 9.7 | 0.00 | 0.00 | 0.00 | 58 | 1010.3 |
| 20260505195753 | 11 | 315 | 6.4 | 8.0 | 0.00 | 0.00 | 0.00 | 55 | 1010.0 |
| 20260505195550 | 11 | 315 | 1.6 | 4.8 | 0.00 | 0.00 | 0.00 | 57 | 1009.8 |
| 20260505195347 | 11 | 281 | 4.8 | 8.0 | 0.00 | 0.00 | 0.00 | 56 | 1009.7 |
| 20260505195145 | 11 | 337 | 6.4 | 9.7 | 0.00 | 0.00 | 0.00 | 56 | 1010.0 |
| 20260505194943 | 11 | 337 | 4.8 | 9.7 | 0.00 | 0.00 | 0.00 | 57 | 1009.8 |
| 20260505194741 | 11 | 303 | 6.4 | 11.3 | 0.00 | 0.00 | 0.00 | 56 | 1009.9 |
| 20260505194540 | 11 | 292 | 6.4 | 11.3 | 0.00 | 0.00 | 0.00 | 55 | 1010.0 |
| 20260505194437 | 11 | 281 | 6.4 | 9.7 | 0.00 | 0.00 | 0.00 | 56 | 1010.0 |
| 20260505194337 | 11 | 281 | 6.4 | 9.7 | 0.00 | 0.00 | 0.00 | 56 | 1010.0 |
| 20260505194137 | 11 | 337 | 9.7 | 9.7 | 0.00 | 0.00 | 0.00 | 57 | 1010.0 |
| 20260505193937 | 11 | 292 | 6.4 | 9.7 | 0.00 | 0.00 | 0.00 | 57 | 1009.5 |
| 20260505193730 | 12 | 292 | 6.4 | 9.7 | 0.00 | 0.00 | 0.00 | 58 | 1010.1 |
| 20260505193528 | 12 | 315 | 3.2 | 11.3 | 0.00 | 0.00 | 0.00 | 53 | 1009.9 |
| 20260505193123 | 12 | 337 | 8.0 | 9.7 | 0.00 | 0.00 | 0.00 | 55 | 1010.0 |
| 20260505192921 | 12 | 292 | 3.2 | 4.8 | 0.00 | 0.00 | 0.00 | 57 | 1010.0 |
| 20260505192718 | 12 | 337 | 1.6 | 6.4 | 0.00 | 0.00 | 0.00 | 57 | 1010.1 |
| 20260505192516 | 12 | 292 | 3.2 | 6.4 | 0.00 | 0.00 | 0.00 | 56 | 1009.9 |
| 20260505192313 | 12 | 225 | 3.2 | 4.8 | 0.00 | 0.00 | 0.00 | 54 | 1010.2 |
| 20260505192000 | 12 | 337 | 3.2 | 9.7 | 0.00 | 0.00 | 0.00 | 56 | 1010.0 |
| 20260505191909 | 12 | 337 | 3.2 | 9.7 | 0.00 | 0.00 | 0.00 | 56 | 1010.0 |
| 20260505191707 | 12 | 348 | 8.0 | 9.7 | 0.00 | 0.00 | 0.00 | 56 | 1009.7 |
| 20260505191450 | 12 | 348 | 8.0 | 11.3 | 0.00 | 0.00 | 0.00 | 56 | 1010.2 |
| 20260505191247 | 12 | 225 | 4.8 | 11.3 | 0.00 | 0.00 | 0.00 | 56 | 1010.2 |
| 20260505191045 | 12 | 292 | 4.8 | 11.3 | 0.00 | 0.00 | 0.00 | 56 | 1010.0 |
| 20260505190034 | 12 | 292 | 4.8 | 11.3 | 0.00 | 0.00 | 0.00 | 56 | 1009.6 |
| 20260505185629 | 12 | 315 | 4.8 | 11.3 | 0.00 | 0.00 | 0.00 | 56 | 1009.4 |
| 20260505185224 | 12 | 258 | 11.3 | 11.3 | 0.00 | 0.00 | 0.00 | 53 | 1009.8 |
| 20260505185022 | 12 | 337 | 9.7 | 11.3 | 0.00 | 0.00 | 0.00 | 54 | 1010.0 |
| 20260505184821 | 12 | 292 | 9.7 | 12.9 | 0.00 | 0.00 | 0.00 | 57 | 1010.0 |
| 20260505184416 | 12 | 281 | 11.3 | 19.3 | 0.00 | 0.00 | 0.00 | 57 | 1010.0 |
| 20260505184213 | 12 | 337 | 14.5 | 19.3 | 0.00 | 0.00 | 0.00 | 57 | 1010.1 |
| 20260505183809 | 12 | 225 | 12.9 | 14.5 | 0.00 | 0.00 | 0.00 | 56 | 1010.0 |
| 20260505183404 | 12 | 315 | 6.4 | 11.3 | 0.00 | 0.00 | 0.00 | 57 | 1009.7 |
| 20260505183202 | 12 | 326 | 6.4 | 11.3 | 0.00 | 0.00 | 0.00 | 57 | 1009.8 |
| 20260505182757 | 12 | 337 | 6.4 | 9.7 | 0.00 | 0.00 | 0.00 | 57 | 1009.5 |
| 20260505182353 | 12 | 315 | 6.4 | 11.3 | 0.00 | 0.00 | 0.00 | 57 | 1009.7 |
| 20260505182150 | 12 | 315 | 8.0 | 8.0 | 0.00 | 0.00 | 0.00 | 58 | 1009.9 |
| 20260505181949 | 12 | 292 | 4.8 | 8.0 | 0.00 | 0.00 | 0.00 | 57 | 1009.8 |
| 20260505181827 | 12 | 292 | 4.8 | 8.0 | 0.00 | 0.00 | 0.00 | 57 | 1009.7 |
| 20260505181746 | 12 | 292 | 4.8 | 8.0 | 0.00 | 0.00 | 0.00 | 57 | 1009.7 |
| 20260505181544 | 12 | 337 | 1.6 | 9.7 | 0.00 | 0.00 | 0.00 | 58 | 1009.7 |
| 20260505180128 | 12 | 258 | 6.4 | 9.7 | 0.00 | 0.00 | 0.00 | 56 | 1009.8 |
| 20260505175925 | 12 | 315 | 4.8 | 9.7 | 0.00 | 0.00 | 0.00 | 58 | 1009.9 |
| 20260505175116 | 13 | 292 | 4.8 | 16.1 | 0.00 | 0.00 | 0.00 | 56 | 1009.9 |
| 20260505174712 | 13 | 258 | 6.4 | 14.5 | 0.00 | 0.00 | 0.00 | 56 | 1009.9 |
| 20260505174510 | 13 | 337 | 6.4 | 14.5 | 0.00 | 0.00 | 0.00 | 56 | 1009.4 |
| 20260505174308 | 13 | 337 | 8.0 | 9.7 | 0.00 | 0.00 | 0.00 | 56 | 1009.8 |
| 20260505174106 | 13 | 337 | 8.0 | 9.7 | 0.00 | 0.00 | 0.00 | 56 | 1010.0 |
| 20260505173701 | 13 | 348 | 4.8 | 9.7 | 0.00 | 0.00 | 0.00 | 57 | 1010.2 |
| 20260505172851 | 13 | 337 | 4.8 | 9.7 | 0.00 | 0.00 | 0.00 | 57 | 1010.1 |
| 20260505172447 | 13 | 337 | 4.8 | 9.7 | 0.00 | 0.00 | 0.00 | 57 | 1010.0 |
| 20260505172042 | 13 | 315 | 9.7 | 9.7 | 0.00 | 0.00 | 0.00 | 54 | 1009.7 |
| 20260505171840 | 13 | 337 | 6.4 | 9.7 | 0.00 | 0.00 | 0.00 | 56 | 1009.9 |
| 20260505171638 | 13 | 292 | 4.8 | 9.7 | 0.00 | 0.00 | 0.00 | 55 | 1009.8 |
| 20260505171233 | 13 | 348 | 6.4 | 11.3 | 0.00 | 0.00 | 0.00 | 55 | 1010.0 |
| 20260505171031 | 13 | 315 | 4.8 | 11.3 | 0.00 | 0.00 | 0.00 | 55 | 1009.9 |
| 20260505170627 | 13 | 337 | 8.0 | 9.7 | 0.00 | 0.00 | 0.00 | 56 | 1010.0 |
| 20260505170425 | 13 | 315 | 4.8 | 14.5 | 0.00 | 0.00 | 0.00 | 64 | 1009.9 |
| 20260505170222 | 13 | 337 | 8.0 | 14.5 | 0.00 | 0.00 | 0.00 | 56 | 1009.9 |
| 20260505165614 | 13 | 337 | 6.4 | 207.6 | 0.00 | 0.00 | 0.00 | 55 | 1010.1 |
| 20260505165415 | 13 | 348 | 8.0 | 207.6 | 0.00 | 0.00 | 0.00 | 55 | 1010.2 |
| 20260505165037 | 13 | 337 | 9.7 | 11.3 | 0.00 | 0.00 | 0.91 | 57 | 1010.2 |
| 20260505164633 | 13 | 258 | 9.7 | 12.9 | 0.00 | 0.00 | 0.91 | 55 | 1010.2 |
| 20260505164505 | 13 | 315 | 9.7 | 12.9 | 0.00 | 0.00 | 0.91 | 55 | 1009.9 |
| 20260505164431 | 13 | 315 | 9.7 | 12.9 | 0.00 | 0.00 | 0.91 | 55 | 1009.9 |
| 20260505164026 | 13 | 337 | 3.2 | 14.5 | 0.00 | 0.00 | 0.91 | 55 | 1010.4 |
| 20260505163622 | 13 | 315 | 6.4 | 11.3 | 0.00 | 0.00 | 0.91 | 55 | 1009.9 |
| 20260505163217 | 13 | 337 | 6.4 | 14.5 | 0.00 | 0.00 | 0.91 | 55 | 1010.4 |
| 20260505162813 | 13 | 337 | 12.9 | 16.1 | 0.00 | 0.00 | 0.89 | 55 | 1010.1 |
| 20260505162408 | 13 | 225 | 14.5 | 17.7 | 0.00 | 0.00 | 0.89 | 55 | 1010.1 |
| 20260505162206 | 13 | 315 | 11.3 | 11.3 | 0.00 | 0.00 | 0.89 | 54 | 1010.2 |
| 20260505162003 | 13 | 337 | 8.0 | 12.9 | 0.00 | 0.00 | 0.89 | 53 | 1010.2 |
| 20260505161801 | 13 | 292 | 9.7 | 12.9 | 0.00 | 0.00 | 0.89 | 55 | 1010.2 |
| 20260505161559 | 13 | 337 | 9.7 | 14.5 | 0.00 | 0.00 | 0.89 | 56 | 1010.2 |
| 20260505161357 | 13 | 292 | 9.7 | 14.5 | 0.00 | 0.00 | 0.89 | 55 | 1010.0 |
| 20260505160549 | 13 | 292 | 6.4 | 9.7 | 0.00 | 0.00 | 0.89 | 55 | 1010.4 |